Regional Weather Roundup
Issued by NWS Newport/Morehead, NC

Current Version | Previous Version | Text Only | Print | Product List | Glossary On
Versions: 1 2 3 4 5 6 7 8 9 10 11 12 13 14 15 16 17 18 19 20 21 22 23 24 25 26 27 28 29 30 31 32 33 34 35 36 37 38 39 40 41 42 43 44 45 46 47 48 49 50
000
ASUS42 KMHX 180212
RWRMHX
WEATHER ROUNDUP FOR EASTERN NORTH CAROLINA
NATIONAL WEATHER SERVICE NEWPORT/MOREHEAD CITY NC
1000 PM EDT FRI APR 17 2015

NOTE: "FAIR" INDICATES FEW OR NO CLOUDS BELOW 12,000 FEET
WITH NO SIGNIFICANT WEATHER AND/OR OBSTRUCTIONS TO VISIBILITY

NCZ015>017-031-032-045>047-102-103-180300-
NORTH COAST

CITY           SKY/WX    TMP DP  RH WIND       PRES   REMARKS
EDENTON        MOCLDY    67  63  85 S6        30.01R
ELIZABETH CITY MOCLDY    67  62  84 S6        30.01R
KITTY HAWK     MOCLDY    65  62  89 S3        30.00R
MANTEO         MOCLDY    65  62  90 S6        30.02R

$$

NCZ045>047-081-094-103-104-180300-
CENTRAL COAST

CITY           SKY/WX    TMP DP  RH WIND       PRES   REMARKS
FRISCO         MOCLDY    62  59  90 E3        30.03R
SWANQUARTER      N/A     68 N/A N/A S3        29.97S

$$

NCZ095-097-098-100-101-180300-
SOUTHERN COAST

CITY           SKY/WX    TMP DP  RH WIND       PRES   REMARKS
BEAUFORT       CLOUDY    68  65  90 CALM      30.02R
CEDAR ISLAND     N/A     68 N/A N/A SE1       30.06S
JACKSONVILLE   CLOUDY    66  64  93 CALM      30.02R
PINEY ISLAND   CLOUDY   N/A N/A N/A CALM      30.02R
WILMINGTON     CLOUDY    68  65  90 CALM      30.02R


$$

NCZ011>013-027>030-043-044-078>080-089-090>093-098-180300-
COASTAL PLAIN

CITY           SKY/WX    TMP DP  RH WIND       PRES   REMARKS
AHOSKIE        CLOUDY    64  62  93 CALM      30.01R
CLINTON        CLOUDY    69  67  94 CALM      30.03R
ELIZABETHTOWN  CLOUDY    68  67  96 CALM      30.02R
GOLDSBORO      CLOUDY    68  65  91 CALM      30.00R
GREENVILLE     CLOUDY    68  64  88 CALM      30.03R
HAVELOCK       MOCLDY    65  62  90 CALM      30.03R
KENANSVILLE    CLOUDY    67  65  93 CALM      30.03R
KINSTON        NOT AVBL
NEW BERN       MOCLDY    68  63  84 CALM      30.02R
RICHLANDS      CLOUDY    64  61  88 SW3       30.03R
ROCKY MOUNT    CLOUDY    66  64  93 CALM      30.01R
WASHINGTON     CLOUDY    67  64  90 CALM      30.01S
WHITEVILLE     CLOUDY    67  65  96 CALM      30.02R

$$

AMZ130-135-150-152-154-156-158-170-250-252-270-ANZ085-086-088-633-658-670-180300-
MARINE OBSERVATIONS

STATION/POSITION TIME  TEMP    WIND        PRES    WAVE   SWELL
                       AIR SEA DIR/SP/G            HT/PER HT/PER
                 (UTC) (F)     (DEG/KT/KT) (MB)    (FT/S) (FT/S)
CHESAPEAKE LIGHT 0200   57     180/ 19/ 20 1016.1
64 E VA BEACH    0150   60 57  200/  6/  6 1016.0    4/ 8   5/ 8
DUCK             0100   57 53  160/ 13/ 14 1015.0
2 E DUCK         0111      54                N/A     4/ 7   2/11
10 NE DUCK       NOT AVBL
OREGON INLET     0100   60 65  110/  4/  6 1016.2
HATTERAS CG      0100   67 67  100/  3/  5 1015.9
DIAMOND BUOY     0050   72 75  140/  4/  8 1016.0    6/10   5/10
CAPE LOOKOUT     0200   69     110/  4/  4 1016.2
BEAUFORT LAB     0100   67 62  120/  3/  3 1015.3
27 SE WRIGHTSVLE 0100   71 73  120/ 10/ 12   N/A
5 SE WRIGHTSVLE  0100   64 64  360/  4/  6 1015.9
225 S CAPE HAT   0150   72 72  100/  2/  6 1016.0    6/10   7/10
41 SE CHARLESTON 0150   71 75   10/ 12/ 12 1015.2    4/ 8   3/ 8

$$


USA.gov is the U.S. government's official web portal to all federal, state and local government web resources and services.